Flag Weather past 2 weeks in Sendai, Japan

Now
48 °F

Passing clouds.


Feels Like: 48 °F
Forecast: 49 / 60 °F
Wind: No wind

Location: Sendai Airport

Current Time: Nov 29, 2014 at 1:11:32 AM

Latest Report: Nov 28, 2014 at 9:00 PM


Visibility: N/A

Pressure: 30.15 "Hg

Humidity: 100%

Dew point: 48 °F

Location of SendaiLocation

Historic Weather in Sendai — Graph

°F

Sendai temperature yesterday

Maximum temperature yesterday: 55 °F (at 11:00 AM)
Minimum temperature yesterday: 37 °F (at 6:00 AM)
Average temperature yesterday: 49 °F

Past Weeks' High & Low Weather Summary

 TemperatureHumidityPressure
High61 °F (Nov 22, 2:00 PM)100% (Nov 19, 6:00 AM)30.36 "Hg (Nov 19, 6:00 AM)
Low30 °F (Nov 20, 7:00 AM)38% (Nov 19, 12:00 PM)29.83 "Hg (Nov 13, 9:00 PM)
Average47 °F73%30.15 "Hg
* Reported Nov 13 9:00 PM — Nov 28 9:00 PM, Sendai, Weather by CustomWeather, © 2014

Note: Actual official high and low records may vary slightly from our data, if they occured in-between our weather recording intervals... More about our weather records

Advertising

Sendai weather history for previous 24 hours

 ConditionsComfort  
Time TempWeatherWind HumidityBarometerVisibility
9:00 PM
Nov 28
48 °FPassing clouds.No wind100%30.15 "HgN/A
8:00 PM48 °FPartly cloudy.5 mph94%30.15 "HgN/A
7:00 PM48 °FPartly cloudy.3 mph94%30.15 "HgN/A
6:00 PM48 °FPassing clouds.5 mph94%30.18 "HgN/A
5:00 PM52 °FPassing clouds.3 mph88%30.18 "HgN/A
4:00 PM54 °FPartly sunny.5 mph82%30.18 "HgN/A
3:00 PM55 °FPassing clouds.7 mph77%30.18 "HgN/A
2:00 PM55 °FPassing clouds.7 mph77%30.18 "HgN/A
1:00 PM55 °FPassing clouds.6 mph72%30.21 "HgN/A
12:00 PM55 °FPassing clouds.3 mph67%30.24 "HgN/A
11:00 AM55 °FPassing clouds.3 mph67%30.27 "HgN/A
10:00 AM50 °FPartly sunny.1 mph82%30.30 "HgN/A
9:00 AM45 °FPartly sunny.2 mph87%30.30 "HgN/A
8:00 AM41 °FScattered clouds.3 mph93%30.30 "HgN/A
7:00 AM37 °FPassing clouds.3 mph100%30.30 "HgN/A
6:00 AM37 °FPassing clouds.1 mph100%30.30 "HgN/A
Weather by CustomWeather, © 2014

See weather overviewHow to use our weather pages